Etusivu
METAR-TAF:

METAR-TAF

Lentoasemat :

Yellowstone Lake, Wyoming, Yhdysvallat

Leveyspiiri: 44-32-40N, Pituuspiiri: 110-25-16W, korkeus merenpinnasta: 2388 m

Tämänhetkinen sää

Tämä raportti tehtiin 42 minuuttia sitten, kello 19.56 UTC
Tuuli 9 kn lounaasta puuskistuen 18 kn:hen, vaihdellen idän ja luoteen välillä
Lämpötila 13°C
Kosteus 28%
Ilmanpaine 1019 hPa

METAR: KP60 231956Z AUTO 23009G18KT 090V320 13/M05 A3010 RMK AO1 SLP141 T01331050

Aika: 14:38 (20:38 UTC)


TAF: puuttuu

Säähavainnot ja -ennusteet yli 4000 lentoasemalta (METAR- ja TAF-raportit).

Käytössä olevat sääasemat on merkitty karttaan keltaisilla ja punaisilla pisteillä.

Aseta hiiri pisteen päälle nähdäksesi sääaseman nimen.

Klikkaa sitten nähdäksesi säähavainnot ja -ennusteet.

Kartan vaihtaminen: klikkaa mustalla rastilla varustettuja vihreitä pisteitä, niin voit zoomata sisään; viivalla varustettua vihreää pistettä, niin voit zoomata ulos tai vihreitä nuolia, niin pääset viereisille kartoille.


METAR-TAF: